Roanoke, VA

7:57 AM EST on December 15, 2019 (GMT -0500)
Roanoke Regional-Woodrum

Weather History for KROA - October, 2019

Change the Weather History Date:

Wednesday, October 30, 2019

  Actual Average Record
Temperature  
Mean Temperature 60 °F 54 °F  
Max Temperature 62 °F 65 °F 85 °F (1937)
Min Temperature 59 °F 42 °F 23 °F (1969)
Degree Days  
Heating Degree Days 4 12  
Month to date heating degree days 149 236  
Since 1 July heating degree days 150 285  
Cooling Degree Days 0 0  
Month to date cooling degree days 73 18  
Year to date cooling degree days 1757 1204  
Growing Degree Days 10 (Base 50)    
Moisture  
Dew Point 59 °F    
Average Humidity 96    
Maximum Humidity 100    
Minimum Humidity 90    
Precipitation  
Precipitation 0.74 in 0.10 in 3.30 in (1970)
Month to date precipitation 5.54 2.79  
Year to date precipitation 37.60 34.81  
Snow  
Snow 0.00 in - - ()
Month to date snowfall 0.0  
Since 1 July snowfall T  
Since 1 September snowfall 0.0  
Snow Depth 0.00 in    
Sea Level Pressure  
Sea Level Pressure 30.18 in    
Wind  
Wind Speed 4 mph ()    
Max Wind Speed 9 mph    
Max Gust Speed 13 mph    
Visibility 3.8 miles    
Events Rain    
T = Trace of Precipitation, MM = Missing Value Source: Averaged Metar Reports

Daily Weather History Graph

Daily Weather History Graph

Search for Another Location

Airport or City:

Astronomy

Oct. 30, 2019 Rise Set
Actual Time 7:42 AM EDT 6:24 PM EDT
Civil Twilight 7:15 AM EDT 6:51 PM EDT
Nautical Twilight 6:44 AM EDT 7:21 PM EDT
Astronomical Twilight 6:14 AM EDT 7:52 PM EDT
Moon 10:21 AM EDT (10/30) 8:33 PM EDT (10/30)
Length of Visible Light 11h 35m
Length of Day
10h 42m
Waxing Crescent, 8% of the Moon is Illuminated
Oct 30
Waxing Crescent
Nov 4
First Quarter
Nov 12
Full
Nov 19
Last Quarter
Nov 26
New

Hourly Weather History & Observations

Time (EDT) Temp. Dew Point Humidity Pressure Visibility Wind Dir Wind Speed Gust Speed Precip Events Conditions
1:54 AM 60.1 °F 57.0 °F 90% 30.25 in 10.0 mi Calm Calm - N/A   Overcast
2:54 AM 60.1 °F 57.0 °F 90% 30.23 in 10.0 mi SE 3.5 mph - N/A   Overcast
3:54 AM 60.1 °F 57.0 °F 90% 30.22 in 10.0 mi Calm Calm - N/A   Overcast
4:54 AM 59.0 °F 57.0 °F 93% 30.22 in 10.0 mi Calm Calm - N/A   Overcast
5:54 AM 60.1 °F 57.9 °F 93% 30.23 in 10.0 mi South 3.5 mph - N/A   Overcast
6:54 AM 59.0 °F 57.9 °F 96% 30.25 in 5.0 mi SE 4.6 mph - 0.00 in   Light Drizzle
7:01 AM 59.0 °F 57.9 °F 96% 30.25 in 2.0 mi SE 5.8 mph - 0.00 in   Light Drizzle
7:15 AM 59.0 °F 57.9 °F 96% 30.25 in 2.0 mi SE 4.6 mph - 0.00 in   Light Drizzle
7:54 AM 59.0 °F 57.9 °F 96% 30.25 in 2.0 mi SSE 5.8 mph - 0.00 in   Light Drizzle
8:31 AM 59.0 °F 57.9 °F 96% 30.27 in 1.0 mi SE 3.5 mph - 0.00 in   Light Drizzle
8:54 AM 60.1 °F 57.9 °F 93% 30.27 in 1.0 mi SSE 4.6 mph - 0.00 in   Light Drizzle
9:54 AM 60.1 °F 59.0 °F 96% 30.27 in 1.0 mi ESE 4.6 mph - 0.00 in   Light Drizzle
10:37 AM 60.1 °F 59.0 °F 96% 30.26 in 1.0 mi SSE 4.6 mph - 0.01 in Rain Light Rain
10:47 AM 60.1 °F 59.0 °F 96% 30.26 in 1.0 mi Calm Calm - 0.01 in   Light Drizzle
10:54 AM 60.1 °F 59.0 °F 96% 30.25 in 1.0 mi South 3.5 mph - 0.01 in   Light Drizzle
11:02 AM 60.1 °F 59.0 °F 96% 30.26 in 1.0 mi SSE 4.6 mph - 0.00 in   Light Drizzle
11:54 AM 60.1 °F 59.0 °F 96% 30.24 in 1.0 mi SE 8.1 mph - 0.01 in Rain Light Rain
12:19 PM 60.1 °F 59.0 °F 96% 30.24 in 1.5 mi SE 6.9 mph - 0.01 in Rain Light Rain
12:27 PM 60.1 °F 59.0 °F 96% 30.24 in 1.5 mi SE 4.6 mph - 0.02 in Rain Light Rain
12:54 PM 60.1 °F 59.0 °F 96% 30.21 in 1.5 mi ESE 5.8 mph - 0.02 in   Light Drizzle
1:02 PM 60.1 °F 59.0 °F 96% 30.22 in 2.0 mi SE 5.8 mph - 0.00 in   Light Drizzle
1:17 PM 60.1 °F 59.0 °F 96% 30.21 in 1.0 mi SE 5.8 mph - 0.00 in   Light Drizzle
1:30 PM 60.1 °F 60.1 °F 100% 30.21 in 0.2 mi SE 5.8 mph - 0.00 in Rain Light Rain
1:54 PM 61.0 °F 60.1 °F 97% 30.18 in 0.8 mi ESE 3.5 mph - 0.03 in Rain Light Rain
2:36 PM 61.0 °F 60.1 °F 97% 30.17 in 0.8 mi ESE 6.9 mph - 0.11 in Rain Heavy Rain
2:54 PM 61.0 °F 60.1 °F 97% 30.15 in 0.8 mi ESE 6.9 mph - 0.17 in Rain Heavy Rain
3:54 PM 61.0 °F 60.1 °F 97% 30.14 in 3.0 mi SE 5.8 mph - 0.11 in Rain Light Rain
4:45 PM 62.1 °F 60.1 °F 93% 30.15 in 3.0 mi ESE 6.9 mph - 0.07 in Rain Rain
4:54 PM 61.0 °F 60.1 °F 97% 30.13 in 3.0 mi ESE 6.9 mph - 0.11 in Rain Light Rain
5:54 PM 61.0 °F 60.1 °F 97% 30.11 in 4.0 mi ESE 6.9 mph - 0.03 in Rain Light Rain
6:54 PM 61.0 °F 60.1 °F 97% 30.10 in 6.0 mi SE 5.8 mph - 0.03 in Rain Light Rain
7:54 PM 62.1 °F 60.1 °F 93% 30.09 in 10.0 mi SE 6.9 mph - 0.02 in Rain Light Rain
8:37 PM 61.0 °F 61.0 °F 100% 30.10 in 2.5 mi ESE 5.8 mph - 0.00 in Rain Light Rain
8:46 PM 61.0 °F 61.0 °F 100% 30.10 in 3.0 mi ESE 6.9 mph - 0.01 in Rain Light Rain
8:54 PM 61.0 °F 61.0 °F 100% 30.08 in 4.0 mi ESE 5.8 mph - 0.01 in Rain Light Rain
9:54 PM 61.0 °F 61.0 °F 100% 30.07 in 4.0 mi SE 3.5 mph - 0.08 in Rain Rain
10:05 PM 61.0 °F 60.1 °F 97% 30.09 in 4.0 mi SSE 4.6 mph - 0.02 in Rain Light Rain
10:52 PM 60.8 °F 60.8 °F 100% 30.07 in 10.0 mi ESE 4.6 mph - 0.09 in   Overcast
10:54 PM 61.0 °F 60.1 °F 97% 30.06 in 10.0 mi ESE 4.6 mph - 0.09 in   Overcast
11:54 PM 62.1 °F 61.0 °F 96% 30.03 in 8.0 mi Calm Calm - 0.01 in Rain Light Rain